THOR ABLESTAR DEB, 548

Orbit data source: Space-Track

THOR ABLESTAR DEB, 548 is space debris in LEO originally from a launch on Thu, 29 Jun 1961 UTC launched from the Air Force Eastern Test Range (AFETR). Debris objects in space refer to the collection of defunct objects orbiting the Earth. Examples of debris include non-operational satellites, rocket bodies, and fragments generated from explosions, collisions, or faulty payload assembly.

Loading next visibility...
Identifier
548, 1961-015GH
Orbit
LEO
Last TLE update
2 days ago
Origin
Manufacturer
Unknown
Mission
Spacecraft
Bus & Motor
Unknown
Mass
Unknown
Launch date (UTC)
1961-06-29 (64 years ago)
Launch vehicle
Unknown
Launch site
Air Force Eastern Test Range (AFETR)
Object type
Payload
Rocket body
Debris
Shape & HBR
Unknown
Radar Cross Section
Small (<0.1 m²)

Expand to show TLE details & history

TLE from 2 days ago
0 THOR ABLESTAR DEB
1 00548U 61015GH  25118.50255893  .00005520  00000-0  80722-3 0  9998
2 00548  66.6730  33.6920 0093864  73.7482 287.3939 14.73475509342679
Epoch: 2025-04-28T12:03Z
Definitive object data (Epoch: 2025-04-28T12:03:41.091Z)
Latitude
-0.00003°
Longitude
-3.94488°
Altitude
632.985 km
Speed
7.553 km/s
True Right ascension
02h 14m 46s
True Declination
0° 00' 00"
Sunlit
Object was in daylight at TLE epoch
Visualization TLE readout
Latitude
-61.32756°
Longitude
-62.61572°
Altitude
726.049 km
Speed
7.463 km/s
Apparent Right ascension
20h 43m 05s
Apparent Declination
-52° 46' 57"
Sunlit
Object is in daylight
Visualization observer readout
Local Sidereal Time
07:36:30
Azimuth
215.945° SW
Elevation
-72.834°
Doppler factor
1
Orbital elements
Apogee altitude
714.293 km
Perigee altitude
582.386 km
Semi-major axis
7,026.477 km
Eccentricity
0.0093864
Inclination
66.673°
RAAN
33.692°
Arg. of periapsis
73.7482°
True anomaly
286.36393°
Mean anomaly
287.3939°
Eccentric anomaly
286.87927°
Mean motion
3.68499 °/min
BSTAR
0.00080722
Orbital period
97.69 mins
Loading maneuver chart data...
Loading SW <> Apogee altitude chart data...

THOR ABLESTAR DEB Visibility forecast

Observer location: undefined°, undefined°

Span
Click to sort rows by Start time (UTC) header in descending order
Start Az.
Max El. time (UTC)
Max El. Az.
Max El.
End time (UTC)
End Az.
8 mins2025-05-01 04:07:16.580Z346.087° N2025-05-01 04:11:16.580Z67.176° ENE34.013°2025-05-01 04:15:16.580Z128.599° SE
4 mins2025-05-01 05:49:16.580Z280.165° WNW2025-05-01 05:51:16.580Z247.318° WSW17.417°2025-05-01 05:53:16.580Z217.191° SW
4 mins2025-05-01 18:24:16.580Z140.985° SSE2025-05-01 18:26:16.580Z101.878° ESE20.666°2025-05-01 18:28:16.580Z68.053° E
6 mins2025-05-01 20:03:16.580Z249.671° W2025-05-01 20:06:16.580Z312.738° NW28.202°2025-05-01 20:09:16.580Z6.399° NNE
|